Location: Frydek-Mistek
(49.6830°N, 18.3330°E)
Time: 13:12:32
(UTC+02:00)

Courier 1B Rocket - All Passes

Search period start: 25 October 2014 00:00
Search period end: 03 November 2014 23:00
Orbit: 921 x 1202 km, 28.3° (Epoch: 25 October)

Date Brightness Start Highest point End Pass type
(mag) Time Alt. Az. Time Alt. Az. Time Alt. Az.
25 Oct - 04:35:37 10° SSW 04:39:05 14° S 04:42:32 10° SSE visible
25 Oct - 06:28:24 10° SSW 06:31:13 12° S 06:34:01 10° S visible
26 Oct - 02:35:33 10° SSW 02:38:25 12° S 02:41:17 10° SSE visible
26 Oct - 04:27:05 10° SSW 04:30:34 14° S 04:34:02 10° SSE visible
27 Oct - 01:36:37 10° S 01:37:46 10° SSE 01:38:56 10° SSE visible
27 Oct - 03:26:14 10° SSW 03:29:53 14° S 03:33:32 10° SSE visible
27 Oct - 05:20:37 10° SSW 05:22:00 11° SSW 05:23:23 10° S visible
28 Oct - 02:25:48 10° SSW 02:29:12 13° S 02:32:38 10° SSE visible
28 Oct - 04:18:27 10° SSW 04:21:21 12° S 04:24:15 10° SSE visible
29 Oct - 01:25:53 10° S 01:28:33 12° S 01:31:15 10° SSE visible
29 Oct - 03:17:15 10° SSW 03:20:41 13° S 03:24:08 10° SSE visible
30 Oct - 02:16:32 10° SSW 02:20:00 14° S 02:23:32 10° SSE visible
30 Oct - 04:10:52 10° SSW 04:12:08 10° SSW 04:13:24 10° S visible
31 Oct - 01:16:14 10° SSW 01:19:21 13° S 01:22:32 10° SSE night (unlit)
31 Oct - 03:08:47 10° SSW 03:11:29 12° S 03:14:12 10° S visible
01 Nov - 00:16:32 10° S 00:18:44 11° SSE 00:20:58 10° SSE night (unlit)
01 Nov - 02:07:41 10° SSW 02:10:49 13° S 02:14:00 10° SSE visible
02 Nov - 01:07:05 10° SSW 01:10:11 13° S 01:13:20 10° SSE night (unlit)
03 Nov - 00:06:56 10° SSW 00:09:34 12° S 00:12:14 10° SSE night (unlit)
03 Nov - 01:59:27 10° SSW 02:01:39 11° S 02:03:52 10° S visible
